Columbus, MS

7:31 PM CDT on August 28, 2016 (GMT -0500)
Columbus Air Force Base

Weather History for KCBM - November, 2013

Change the Weather History Date:

Monday, November 25, 2013

  Actual Average Record
Temperature  
Mean Temperature 38 °F -  
Max Temperature 44 °F 60 °F 75 °F (2010)
Min Temperature 32 °F 40 °F 23 °F (2012)
Degree Days  
Heating Degree Days 27    
Moisture  
Dew Point 30 °F    
Average Humidity 72    
Maximum Humidity 100    
Minimum Humidity 40    
Precipitation  
Precipitation 0.88 in - - ()
Sea Level Pressure  
Sea Level Pressure 30.24 in    
Wind  
Wind Speed 6 mph (ENE)    
Max Wind Speed 9 mph    
Max Gust Speed -    
Visibility 9 miles    
Events Rain    
Averages and records for this station are not official NWS values.
T = Trace of Precipitation, MM = Missing Value Source: NWS Daily Summary

Daily Weather History Graph

Daily Weather History Graph

Search for Another Location

Airport or City:

Trip Planner

Search our weather history database for the weather conditions in past years. The results will help you decide how hot, cold, wet, or windy it might be!

Date:

Astronomy

Nov. 25, 2013 Rise Set
Actual Time 6:35 AM CST 4:46 PM CST
Civil Twilight 6:08 AM CST 5:13 PM CST
Nautical Twilight 5:37 AM CST 5:43 PM CST
Astronomical Twilight 5:07 AM CST 6:13 PM CST
Moon 11:57 PM CST (11/25) 12:03 PM CST (11/25)
Length of Visible Light 11h 05m
Length of Day
10h 11m
Waning Gibbous, 51% of the Moon is Illuminated
Nov 25
Waning Gibbous
Nov 25
Last Quarter
Dec 2
New
Dec 9
First Quarter
Dec 17
Full

Hourly Weather History & Observations

Time (CST) Temp. Windchill Dew Point Humidity Pressure Visibility Wind Dir Wind Speed Gust Speed Precip Events Conditions
12:58 AM 32.2 °F 26.7 °F 17.6 °F 55% 30.41 in 10.0 mi NE 5.8 mph - N/A   Overcast
1:58 AM 32.9 °F 28.5 °F 16.2 °F 50% 30.40 in 10.0 mi ENE 4.6 mph - N/A   Scattered Clouds
2:50 AM 33.8 °F 29.6 °F 15.8 °F 48% 30.38 in 10.0 mi NE 4.6 mph - N/A   Ice Pellets
2:58 AM 34.2 °F 31.2 °F 14.9 °F 45% 30.40 in 10.0 mi ENE 3.5 mph - 0.00 in   Ice Pellets
3:00 AM 33.8 °F 27.7 °F 15.8 °F 48% 30.37 in 10.0 mi ENE 6.9 mph - N/A   Partly Cloudy
3:58 AM 35.1 °F 32.2 °F 14.9 °F 44% 30.40 in 10.0 mi East 3.5 mph - 0.00 in   Scattered Clouds
4:58 AM 35.1 °F 30.1 °F 17.4 °F 49% 30.39 in 10.0 mi ENE 5.8 mph - N/A   Mostly Cloudy
5:58 AM 35.8 °F 31.9 °F 17.8 °F 48% 30.38 in 10.0 mi ESE 4.6 mph - N/A   Mostly Cloudy
6:58 AM 37.4 °F 30.8 °F 17.6 °F 45% 30.38 in 10.0 mi ESE 9.2 mph - N/A   Scattered Clouds
7:58 AM 39.0 °F 33.4 °F 18.5 °F 44% 30.37 in 10.0 mi SE 8.1 mph - N/A   Mostly Cloudy
8:55 AM 41.0 °F 35.8 °F 19.4 °F 42% 30.34 in 10.0 mi East 8.1 mph - N/A   Mostly Cloudy
8:58 AM 41.0 °F 35.8 °F 19.4 °F 42% 30.36 in 10.0 mi ESE 8.1 mph - N/A   Mostly Cloudy
9:05 AM 41.0 °F 35.2 °F 19.4 °F 42% 30.34 in 10.0 mi ESE 9.2 mph - N/A   Mostly Cloudy
9:58 AM 42.3 °F 39.4 °F 19.6 °F 40% 30.37 in 10.0 mi ESE 4.6 mph - 0.00 in   Overcast
10:58 AM 44.1 °F 39.5 °F 21.4 °F 41% 30.32 in 10.0 mi ESE 8.1 mph - N/A   Mostly Cloudy
11:58 AM 44.8 °F 41.6 °F 23.0 °F 42% 30.30 in 10.0 mi ESE 5.8 mph - N/A   Overcast
12:08 PM 44.6 °F 42.2 °F 23.0 °F 43% 30.28 in 10.0 mi ESE 4.6 mph - N/A   Overcast
12:58 PM 44.1 °F 42.5 °F 29.8 °F 57% 30.27 in 10.0 mi East 3.5 mph - 0.00 in Rain Light Rain
1:58 PM 43.5 °F 38.9 °F 31.5 °F 63% 30.22 in 10.0 mi NNE 8.1 mph - 0.01 in   Overcast
2:58 PM 41.7 °F 37.3 °F 34.0 °F 74% 30.21 in 10.0 mi NE 6.9 mph - 0.01 in Rain Light Rain
3:23 PM 41.0 °F - 33.8 °F 76% 30.21 in 10.0 mi ENE 2.3 mph - N/A   Overcast
3:27 PM 41.0 °F 39.0 °F 33.8 °F 76% 30.21 in 10.0 mi NNE 3.5 mph - N/A Rain Light Rain
3:58 PM 41.4 °F - 36.1 °F 82% 30.22 in 10.0 mi NE 1.2 mph - 0.01 in Rain Light Rain
4:58 PM 40.8 °F 35.0 °F 36.7 °F 85% 30.22 in 10.0 mi ESE 9.2 mph - 0.04 in Rain Light Rain
5:28 PM 41.0 °F 35.2 °F 37.4 °F 87% 30.20 in 9.0 mi ESE 9.2 mph - N/A Rain Light Rain
5:43 PM 41.0 °F 35.8 °F 37.4 °F 87% 30.20 in 10.0 mi East 8.1 mph - N/A Rain Light Rain
5:48 PM 41.0 °F 37.1 °F 37.4 °F 87% 30.20 in 10.0 mi East 5.8 mph - N/A Rain Light Rain
5:58 PM 40.3 °F 36.3 °F 37.4 °F 89% 30.22 in 10.0 mi ENE 5.8 mph - 0.05 in Rain Light Rain
6:51 PM 41.0 °F 39.0 °F 39.2 °F 93% 30.19 in 10.0 mi NE 3.5 mph - N/A Rain Light Rain
6:58 PM 40.1 °F 36.9 °F 38.3 °F 93% 30.21 in 10.0 mi NE 4.6 mph - 0.06 in Rain Light Rain
7:58 PM 39.7 °F 34.9 °F 38.1 °F 94% 30.17 in 10.0 mi East 6.9 mph - 0.02 in Rain Light Rain
8:58 PM 39.9 °F 34.5 °F 38.7 °F 95% 30.14 in 7.0 mi East 8.1 mph - 0.08 in Rain Light Rain
8:59 PM 39.2 °F 34.2 °F 39.2 °F 100% 30.12 in 7.0 mi East 6.9 mph - N/A Rain Light Rain
9:29 PM 41.0 °F 39.0 °F 39.2 °F 93% 30.11 in 9.0 mi East 3.5 mph - N/A Rain Light Rain
9:58 PM 40.3 °F 37.1 °F 39.2 °F 96% 30.14 in 7.0 mi East 4.6 mph - 0.12 in Rain Light Rain
10:18 PM 41.0 °F 38.0 °F 39.2 °F 93% 30.09 in 4.0 mi NE 4.6 mph - N/A Rain Heavy Rain
10:28 PM 41.0 °F 37.1 °F 39.2 °F 93% 30.10 in 5.0 mi NE 5.8 mph - N/A Rain Rain
10:38 PM 41.0 °F 35.8 °F 39.2 °F 93% 30.08 in 4.0 mi NNE 8.1 mph - N/A Rain Heavy Rain
10:48 PM 41.0 °F 36.4 °F 39.2 °F 93% 30.08 in 5.0 mi NNE 6.9 mph - N/A Rain Heavy Rain
10:58 PM 40.3 °F 36.3 °F 39.6 °F 97% 30.09 in 5.0 mi NNE 5.8 mph - 0.27 in Rain Rain
11:23 PM 41.0 °F - 39.2 °F 93% 30.11 in 4.0 mi Calm Calm - N/A Rain Rain
11:33 PM 41.0 °F 37.1 °F 41.0 °F 100% 30.08 in 4.0 mi NNE 5.8 mph - N/A Rain Rain
11:48 PM 41.0 °F 38.0 °F 41.0 °F 100% 30.08 in 5.0 mi North 4.6 mph - N/A Rain Rain
11:58 PM 40.6 °F 37.5 °F 40.1 °F 98% 30.09 in 5.0 mi North 4.6 mph - 0.21 in Rain Rain